OpenBCM V2.0.3 (Linux)

Packet Radio Mailbox

IZ3LSV

[San Dona' di P. JN]

 Login: GUEST





  
LU9DCE > KEP      22.12.19 18:15l 248 Lines 12348 Bytes #999 (0) @ WW
BID : 5662_LU9DCE
Read: GUEST
Subj: TLE 22 12
Path: IZ3LSV<IW0QNL<IR2UBX<EA2RCF<LU9DCE
Sent: 191222/1600Z 5662@LU9DCE.TOR.BA.ARG.SOAM LinBPQ6.0.19

            __    _  _  ___  ____   ___  ____    ____  ____  ____
           (  )  / )( \/ _ \(    \ / __)(  __)  (  _ \(  _ \/ ___)
           / (_/\) \/ (\__  )) D (( (__  ) _)    ) _ ( ) _ (\___ \
           \____/\____/(___/(____/ \___)(____)  (____/(____/(____/
               ESTACION DE PACKET RADIO - BUENOS AIRES (GF05OM)
                   BOLETINES INFORMATIVOS PROGRAMADOS (BIP)
                      LINUX - HELLOCODELINUX@GMAIL.COM
+----------------------------------------------------------------------------+
OSCAR 7
1  7530U 74089B   19356.53210594 -.00000036  00000-0  54231-4 0  9995
2  7530 101.7739 322.4619 0012278 348.1210 120.8280 12.53641315 63934
OSCAR 11 (UoSAT 2)
1 14781U 84021B   19356.11283701  .00000083  00000-0  16278-4 0  9992
2 14781  97.5988  11.8828 0009881  71.0932 289.1353 14.83129335926394
OSCAR 19 (LUSAT)
1 20442U 90005G   19355.82736031 -.00000018  00000-0  96966-5 0  9990
2 20442  98.6709 297.6903 0011168 325.8085  34.2378 14.32940864563032
EYESAT A
1 22825U 93061C   19355.89030451 +.00000004 +00000-0 +19476-4 0  9996
2 22825 098.9169 348.9084 0008511 169.9890 190.1462 14.30073929368295
ITAMSAT
1 22826U 93061D   19356.47809816  .00000008  00000-0  20784-4 0  9999
2 22826  98.9109 349.4786 0009280 157.6748 202.4839 14.30408588368855
RADIO ROSTO
1 23439U 94085A   19356.47545260 -.00000022  00000-0  59423-3 0  9995
2 23439  64.8126 174.0694 0145958  76.6331 285.0818 11.27569449 29112
JAS 2
1 24278U 96046B   19355.81606745 -.00000039  00000-0 -60442-5 0  9993
2 24278  98.5638 124.2370 0351187 117.5050 246.2244 13.53094940152973
TECHSAT 1B
1 25397U 98043D   19355.86335778 -.00000020 +00000-0 +10491-4 0  9992
2 25397 098.7096 293.9076 0001003 162.7637 197.3576 14.23676441114146
ISS (ZARYA)
1 25544U 98067A   19356.57725706 -.00000103  00000-0  62443-5 0  9992
2 25544  51.6420 147.3605 0007813  61.9517 346.3778 15.50124162204487
PCSAT
1 26931U 01043C   19355.89108219 -.00000038 +00000-0 +17169-4 0  9990
2 26931 067.0509 243.1897 0007010 263.8383 096.1920 14.30562274951539
SAUDISAT 1C
1 27607U 02058C   19356.46696303 -.00000026  00000-0  17127-4 0  9999
2 27607  64.5535 198.5488 0068946 219.5765 140.0293 14.75596623914598
CUTE-1
1 27844U 03031E   19356.51202312  .00000054  00000-0  43898-4 0  9997
2 27844  98.6834   1.9268 0009389 205.1979 154.8742 14.22212070854844
CUBESAT XI 4
1 27848U 03031J   19355.50198191  .00000034  00000-0  35168-4 0  9997
2 27848  98.6908   1.4676 0009054 220.7512 139.2989 14.21802465854542
MOZHAYETS 4
1 27939U 03042A   19356.48321571  .00000105  00000-0  27407-4 0  9994
2 27939  98.0653 128.9647 0012722 191.3554 168.7358 14.66825706867927
CUBESAT XI 5
1 28895U 05043F   19355.58780692 +.00000100 +00000-0 +27952-4 0  9992
2 28895 097.9839 132.2544 0017936 123.0853 237.2075 14.63722384754448
CUTE-1.7+APD II
1 32785U 08021C   19355.77875708 +.00000207 +00000-0 +27975-4 0  9991
2 32785 097.5596 346.8185 0013345 012.5693 347.5855 14.88392241631295
DELFI C3
1 32789U 08021G   19356.11663748  .00000699  00000-0  50230-4 0  9998
2 32789  97.4426  39.9566 0011689 200.2788 159.7978 15.07338256635047
SEEDS
1 32791U 08021J   19355.81787251 +.00000393 +00000-0 +45158-4 0  9997
2 32791 097.5326 352.9713 0012878 344.3230 015.7588 14.90936326631761
YUBELEINY
1 32953U 08025A   19356.44762123  .00000037  00000-0  19437-3 0  9997
2 32953  82.5051  28.6187 0020350  83.4274 276.9117 12.43093114525514
PRISM (HITOMI)
1 33493U 09002B   19356.44941908 -.00000105  00000-0 -35207-5 0  9996
2 33493  98.1310 284.5474 0013962 287.9165  72.0533 14.96849962593082
KKS-1 (KISEKI)
1 33499U 09002H   19356.16855233  .00000084  00000-0  20398-4 0  9994
2 33499  98.3331 200.6939 0008679 340.5890  19.4987 14.75489901586729
SWISSCUBE
1 35932U 09051B   19356.13587108  .00000107  00000-0  35306-4 0  9993
2 35932  98.5996 167.7667 0006866 319.9626  40.1064 14.56341603543912
BEESAT
1 35933U 09051C   19356.47137552  .00000097  00000-0  32974-4 0  9991
2 35933  98.6008 169.9415 0005246 335.8743  24.2207 14.56423874544072
ITUPSAT 1
1 35935U 09051E   19355.46857809  .00000080  00000-0  29531-4 0  9992
2 35935  98.6116 169.1290 0007563 334.1600  25.9218 14.55576183543660
XIWANG-1 (HOPE-1)
1 36122U 09072B   19355.71898007 -.00000036  00000-0  16493-4 0  9992
2 36122 100.0808 349.4057 0006919 276.2773  83.7564 13.16352529481355
TISAT 1
1 36799U 10035E   19356.02681668  .00000156  00000-0  21871-4 0  9999
2 36799  98.1752 154.6500 0012083 189.2087 170.8911 14.91230735512536
JUGNU
1 37839U 11058B   19355.93051178 +.00000320 +00000-0 +28510-4 0  9997
2 37839 019.9615 285.3939 0018904 219.6272 204.5740 14.12667440423515
SRMSAT
1 37841U 11058D   19356.18070553  .00000311  00000-0  25726-4 0  9992
2 37841  19.9734 344.5098 0012085  85.5618   0.4328 14.10646196423059
M-CUBED/EXP-1 PRIME
1 37855U 11061F   19355.93675582 +.00001088 +00000-0 +61903-4 0  9995
2 37855 101.7259 347.2743 0172104 244.5721 113.7594 15.05892345444335
HORYU 2
1 38340U 12025D   19355.82966446 +.00000126 +00000-0 +26435-4 0  9999
2 38340 098.3072 039.7838 0010372 248.2606 111.7499 14.75789560398204
STRAND 1
1 39090U 13009E   19356.01300529  .00000020  00000-0  22085-4 0  9991
2 39090  98.4686 198.6840 0010273  94.6583 265.5776 14.35110794357118
SOMP
1 39134U 13015E   19355.84366625  .00001249  00000-0  65161-4 0  9992
2 39134  64.8624 137.1587 0038163 272.5285  87.1474 15.20591146368895
BEESAT 3
1 39135U 13015F   19355.90294939 +.00000863 +00000-0 +51556-4 0  9992
2 39135 064.8649 157.9127 0043271 275.4278 084.1913 15.17801297368110
BEESAT 2
1 39136U 13015G   19356.47254481  .00000925  00000-0  55811-4 0  9991
2 39136  64.8693 160.4571 0030877 281.8683  77.8981 15.17226523368501
CUBEBUG 1
1 39153U 13018D   19356.21999018  .00000156  00000-0  27219-4 0  9994
2 39153  97.9819  93.3435 0015895 317.2560  42.7415 14.80641901359414
ZACUBE
1 39417U 13066B   19356.49900279  .00000179  00000-0  28745-4 0  9991
2 39417  97.5611 359.4880 0059867 140.3880 220.1731 14.81195408328696
TRITON 1
1 39427U 13066M   19356.50476531  .00000133  00000-0  29568-4 0  9997
2 39427  97.7012 322.5917 0112392 287.7245  71.1719 14.67922011325745
GOMX 1
1 39430U 13066Q   19356.47015599  .00000252  00000-0  54364-4 0  9994
2 39430  97.7716 300.9530 0151917  25.7978 335.0693 14.59327774323848
HUMSAT D
1 39433U 13066T   19356.09200104  .00000201  00000-0  24784-4 0  9990
2 39433  97.5310  35.7492 0031587  40.9326 319.4257 14.92332199330872
CUBEBUG 2
1 39440U 13066AA  19355.92210145 +.00000165 +00000-0 +29983-4 0  9990
2 39440 097.6145 343.4863 0079647 199.0687 160.7538 14.75933020326249
FUNCUBE 1
1 39444U 13066AE  19355.72035884  .00000236  00000-0  35171-4 0  9992
2 39444  97.5574   0.8654 0059064 136.0457 224.5478 14.82030632327481
UWE-3
1 39446U 13066AG  19355.94577801 +.00000185 +00000-0 +31082-4 0  9998
2 39446 097.5873 350.6831 0070172 171.0992 189.1482 14.78467351326199
SPROUT
1 39770U 14029E   19356.37635531  .00000510  00000-0  62224-4 0  9995
2 39770  97.8910  98.5593 0008890 185.3581 174.7542 14.87547609302586
UNISAT 6
1 40012U 14033C   19355.87993296 +.00000133 +00000-0 +27193-4 0  9997
2 40012 097.7306 214.2042 0057413 215.9804 143.7534 14.74046803296118
DUCHIFAT 1
1 40021U 14033M   19356.35102318  .00000449  00000-0  51501-4 0  9998
2 40021  97.9329 281.6222 0013393 149.3047 210.8957 14.90767837299350
QB50P1
1 40025U 14033R   19356.45184413  .00000214  00000-0  28746-4 0  9994
2 40025  97.9105 275.8445 0012766 158.9217 201.2528 14.89041434299114
CHUBUSAT 1
1 40300U 14070C   19356.28014547  .00000505  00000-0  24769-4 0  9996
2 40300  97.3097  65.5764 0020975 117.7617 283.0763 15.22295697284405
NUDT-PHONESAT
1 40900U 15049B   19356.56302829  .00002027  00000-0  88051-4 0  9998
2 40900  97.4356   4.1119 0011092 246.9198 235.5616 15.23420268236100
ZDPS 2A
1 40901U 15049C   19356.37938728  .00000687  00000-0  37117-4 0  9998
2 40901  97.4616 359.5460 0011843 274.6256 192.6553 15.17988495235558
ZDPS 2B
1 40902U 15049D   19356.35719938  .00001055  00000-0  55305-4 0  9996
2 40902  97.4579 356.8764 0011837 271.8271 199.4017 15.17898898235527
XW-2A
1 40903U 15049E   19356.40377721  .00001742  00000-0  42173-4 0  9995
2 40903  97.3153  40.0266 0013141 181.8159 304.9768 15.42444438239029
KAITUO 1A
1 40904U 15049F   19356.40155419  .00000738  00000-0  42357-4 0  9992
2 40904  97.4723 355.2839 0013063 283.6478 186.1638 15.15545103235279
OBJECT G
1 40905U 15049G   19356.41752229  .00000283  00000-0  18946-4 0  9998
2 40905  97.4787 352.6628 0014197 279.2072 186.9051 15.14419273235136
XW-2C
1 40906U 15049H   19356.36288855  .00000392  00000-0  23965-4 0  9990
2 40906  97.4728 355.4201 0013156 273.1669 194.0166 15.15866207235275
XW-2D
1 40907U 15049J   19356.45749159  .00000633  00000-0  36292-4 0  9995
2 40907  97.4706 355.1990 0012634 269.7413 246.6070 15.16075020235300
LILACSAT 2
1 40908U 15049K   19356.46167781  .00000530  00000-0  32859-4 0  9993
2 40908  97.4854 353.8020 0014256 278.5330 212.1125 15.13920252235067
XW-2F
1 40910U 15049M   19356.50065813  .00000873  00000-0  46743-4 0  9991
2 40910  97.4658 357.5359 0013057 259.9939 250.3107 15.17606184235348
XW-2B
1 40911U 15049N   19356.35783029  .00000541  00000-0  31604-4 0  9993
2 40911  97.4731 355.7820 0012432 270.8460 196.2274 15.16002210235185
KAITUO 1B
1 40912U 15049P   19356.30714443  .00000992  00000-0  49229-4 0  9995
2 40912  97.4501   1.2777 0013436 238.1538 247.8435 15.19956730235655
TIANWANG 1C (TW-1C)
1 40926U 15051B   19356.42282918  .00014950  00000-0  18706-3 0  9997
2 40926  97.1134  42.5688 0008347  45.7414  80.9709 15.59856169239224
TIANWANG 1B (TW-1B)
1 40927U 15051C   19356.39390943  .00013593  00000-0  18274-3 0  9994
2 40927  97.1158  41.5113 0008740  58.2135  73.7487 15.57963410239048
